Weather History for Blair, NE

Change the Weather History Date:

Saturday, November 24, 2012

  Actual Average (KOMA) Record (KOMA)
Temperature  
Mean Temperature 32 °F 34 °F  
Max Temperature 45 °F 44 °F 73 °F (2011)
Min Temperature 18 °F 25 °F 3 °F (1898)
Degree Days  
Heating Degree Days 34 31  
Month to date heating degree days 590  
Since 1 July heating degree days 1075  
Cooling Degree Days 0 0  
Month to date cooling degree days 0  
Year to date cooling degree days 1112  
Moisture  
Dew Point 16 °F    
Average Humidity 52    
Maximum Humidity 71    
Minimum Humidity 35    
Precipitation  
Precipitation 0.00 in 0.05 in 1.18 in (2001)
Month to date precipitation 1.36  
Year to date precipitation 29.30  
Snow  
Snow 0.00 in 0.20 in - ()
Month to date snowfall 1.6  
Since 1 July snowfall 1.9  
Snow Depth -    
Sea Level Pressure  
Sea Level Pressure 30.06 in    
Wind  
Wind Speed 6 mph (SSE)    
Max Wind Speed 20 mph    
Max Gust Speed 25 mph    
Visibility 10 miles    
Events      
T = Trace of Precipitation, MM = Missing Value Source: NWS Daily Summary

Daily Weather History Graph

Daily Weather History Graph

Search for Another Location

Airport:

Trip Planner

Search our weather history database for the weather conditions in past years. The results will help you decide how hot, cold, wet, or windy it might be!

Date:

Astronomy

Nov. 24, 2012 Rise Set
Actual Time 7:24 AM CST 4:58 PM CST
Civil Twilight 6:53 AM CST 5:28 PM CST
Nautical Twilight 6:19 AM CST 6:02 PM CST
Astronomical Twilight 5:46 AM CST 6:35 PM CST
Moon 2:45 PM CST (11/24) 3:40 AM CST (11/24)
Length of Visible Light 10h 34m
Length of Day
9h 34m
Waxing Gibbous, 87% of the Moon is Illuminated
Nov 24
Waxing Gibbous
Nov 28
Full
Dec 6
Last Quarter
Dec 13
New
Dec 19
First Quarter

Hourly Weather History & Observations

Time (CST) Temp. Windchill Dew Point Humidity Pressure Visibility Wind Dir Wind Speed Gust Speed Precip Events Conditions
12:15 AM 22.5 °F - 9.3 °F 57% 30.36 in 10.0 mi Calm Calm - N/A   Clear
12:35 AM 19.2 °F - 9.5 °F 66% 30.36 in 10.0 mi Calm Calm - N/A   Clear
12:55 AM 20.1 °F - 9.5 °F 63% 30.36 in 10.0 mi Calm Calm - N/A   Clear
1:15 AM 19.6 °F - 10.2 °F 67% 30.35 in 10.0 mi Calm Calm - N/A   Clear
1:35 AM 18.9 °F - 9.5 °F 67% 30.35 in 10.0 mi Calm Calm - N/A   Clear
1:55 AM 20.1 °F - 10.4 °F 66% 30.35 in 10.0 mi Calm Calm - N/A   Clear
2:15 AM 21.6 °F - 11.1 °F 64% 30.33 in 10.0 mi Calm Calm - N/A   Clear
2:35 AM 21.2 °F - 12.0 °F 68% 30.33 in 10.0 mi Calm Calm - N/A   Clear
2:55 AM 21.2 °F - 10.9 °F 65% 30.31 in 10.0 mi Calm Calm - N/A   Clear
3:15 AM 21.2 °F - 10.2 °F 63% 30.31 in 10.0 mi Calm Calm - N/A   Clear
3:35 AM 21.6 °F - 10.2 °F 62% 30.31 in 10.0 mi Calm Calm - N/A   Clear
3:55 AM 21.6 °F - 10.2 °F 62% 30.30 in 10.0 mi Calm Calm - N/A   Clear
4:15 AM 19.9 °F 14.9 °F 10.9 °F 68% 30.30 in 10.0 mi South 3.5 mph - N/A   Clear
4:35 AM 19.6 °F 14.5 °F 10.9 °F 69% 30.29 in 10.0 mi SSE 3.5 mph - N/A   Clear
4:55 AM 20.7 °F 15.8 °F 11.3 °F 67% 30.28 in 10.0 mi SSE 3.5 mph - N/A   Clear
5:15 AM 21.0 °F 13.4 °F 12.9 °F 71% 30.27 in 10.0 mi SE 5.8 mph - N/A   Clear
5:35 AM 22.5 °F 15.1 °F 13.3 °F 68% 30.26 in 10.0 mi SSE 5.8 mph - N/A   Clear
5:55 AM 23.2 °F 15.0 °F 13.1 °F 65% 30.25 in 10.0 mi SE 6.9 mph - N/A   Clear
6:15 AM 24.3 °F 14.6 °F 13.1 °F 63% 30.24 in 10.0 mi SSE 9.2 mph - N/A   Clear
6:35 AM 24.8 °F 14.6 °F 12.9 °F 61% 30.23 in 10.0 mi SSE 10.4 mph - N/A   Clear
6:55 AM 24.8 °F 16.1 °F 13.1 °F 61% 30.23 in 10.0 mi SSE 8.1 mph - N/A   Clear
7:15 AM 25.3 °F 16.0 °F 12.6 °F 58% 30.23 in 10.0 mi SSE 9.2 mph - N/A   Clear
7:35 AM 25.5 °F 16.2 °F 12.9 °F 59% 30.22 in 10.0 mi SE 9.2 mph - N/A   Clear
7:55 AM 25.7 °F 15.1 °F 13.1 °F 59% 30.21 in 10.0 mi SE 11.5 mph - N/A   Clear
8:15 AM 26.4 °F 16.0 °F 13.1 °F 57% 30.19 in 10.0 mi SE 11.5 mph - N/A   Clear
8:35 AM 26.6 °F 15.7 °F 12.9 °F 56% 30.20 in 10.0 mi SSE 12.7 mph - N/A   Clear
8:55 AM 27.5 °F 15.9 °F 13.5 °F 56% 30.19 in 10.0 mi SSE 15.0 mph - N/A   Clear
9:15 AM 28.0 °F 16.5 °F 13.3 °F 54% 30.18 in 10.0 mi SSE 15.0 mph - N/A   Clear
9:35 AM 28.9 °F 19.2 °F 13.3 °F 52% 30.17 in 10.0 mi SSE 11.5 mph - N/A   Clear
9:55 AM 30.6 °F 20.7 °F 13.5 °F 49% 30.16 in 10.0 mi SE 12.7 mph 23.0 mph N/A   Clear
10:15 AM 31.1 °F 20.5 °F 13.1 °F 47% 30.14 in 10.0 mi SE 15.0 mph 21.9 mph N/A   Clear
10:35 AM 32.5 °F 21.9 °F 14.0 °F 46% 30.13 in 10.0 mi SSE 16.1 mph - N/A   Clear
10:55 AM 33.6 °F 22.9 °F 14.2 °F 45% 30.11 in 10.0 mi SSE 17.3 mph 21.9 mph N/A   Clear
11:15 AM 34.2 °F 23.0 °F 14.2 °F 44% 30.10 in 10.0 mi SSE 19.6 mph - N/A   Clear
11:35 AM 34.5 °F 23.8 °F 14.7 °F 44% 30.08 in 10.0 mi SSE 18.4 mph 23.0 mph N/A   Clear
11:55 AM 35.6 °F 25.2 °F 14.9 °F 43% 30.05 in 10.0 mi SSE 18.4 mph 23.0 mph N/A   Clear
12:15 PM 36.5 °F 27.0 °F 15.4 °F 42% 30.02 in 10.0 mi SSE 16.1 mph 24.2 mph N/A   Clear
12:35 PM 37.0 °F 27.0 °F 15.6 °F 42% 30.01 in 10.0 mi SSE 18.4 mph 24.2 mph N/A   Clear
12:55 PM 38.3 °F 28.7 °F 15.8 °F 40% 29.99 in 10.0 mi SSE 18.4 mph 25.3 mph N/A   Clear
1:15 PM 37.9 °F 29.6 °F 16.0 °F 41% 29.97 in 10.0 mi SSE 13.8 mph 19.6 mph N/A   Clear
1:35 PM 40.5 °F 32.5 °F 16.5 °F 38% 29.95 in 10.0 mi SSE 15.0 mph 19.6 mph N/A   Clear
1:55 PM 40.5 °F 32.1 °F 16.7 °F 38% 29.94 in 10.0 mi SSE 16.1 mph - N/A   Clear
2:15 PM 41.9 °F 34.3 °F 16.9 °F 36% 29.93 in 10.0 mi South 15.0 mph - N/A   Clear
2:35 PM 43.7 °F 35.4 °F 17.6 °F 35% 29.91 in 10.0 mi South 19.6 mph 24.2 mph N/A   Clear
2:55 PM 44.1 °F 37.1 °F 17.8 °F 35% 29.91 in 10.0 mi South 15.0 mph 24.2 mph N/A   Clear
3:15 PM 44.2 °F 37.6 °F 18.3 °F 35% 29.90 in 10.0 mi South 13.8 mph 20.7 mph N/A   Clear
3:35 PM 45.1 °F 38.4 °F 19.0 °F 35% 29.89 in 10.0 mi South 15.0 mph - N/A   Clear
3:55 PM 44.8 °F 38.0 °F 19.0 °F 36% 29.88 in 10.0 mi South 15.0 mph 20.7 mph N/A   Clear
4:15 PM 43.7 °F 37.7 °F 19.4 °F 38% 29.88 in 10.0 mi South 11.5 mph - N/A   Clear
4:35 PM 42.8 °F 38.0 °F 19.4 °F 39% 29.87 in 10.0 mi SSE 8.1 mph - N/A   Clear
4:55 PM 41.9 °F 37.5 °F 19.9 °F 42% 29.88 in 10.0 mi SSE 6.9 mph - N/A   Clear
5:15 PM 41.4 °F 36.2 °F 19.9 °F 42% 29.87 in 10.0 mi SSE 8.1 mph - N/A   Clear
5:35 PM 41.2 °F 36.6 °F 20.1 °F 43% 29.87 in 10.0 mi SSE 6.9 mph - N/A   Clear
5:55 PM 39.6 °F 37.4 °F 20.3 °F 46% 29.87 in 10.0 mi SSE 3.5 mph - N/A   Clear
6:15 PM 40.1 °F 36.9 °F 20.7 °F 46% 29.87 in 10.0 mi SSE 4.6 mph - N/A   Clear
6:35 PM 39.0 °F 34.0 °F 21.2 °F 49% 29.86 in 10.0 mi South 6.9 mph - N/A   Clear
6:55 PM 40.1 °F 36.1 °F 21.2 °F 47% 29.85 in 10.0 mi South 5.8 mph - N/A   Clear
7:15 PM 40.1 °F 36.1 °F 21.2 °F 47% 29.86 in 10.0 mi SSE 5.8 mph - N/A   Clear
7:35 PM 39.2 °F 37.0 °F 21.6 °F 49% 29.86 in 10.0 mi SSE 3.5 mph - N/A   Clear
7:55 PM 39.9 °F 36.7 °F 22.3 °F 49% 29.86 in 10.0 mi South 4.6 mph - N/A   Clear
8:15 PM 37.8 °F 33.3 °F 22.1 °F 53% 29.85 in 10.0 mi South 5.8 mph - N/A   Clear
8:35 PM 39.9 °F 33.9 °F 23.4 °F 52% 29.84 in 10.0 mi South 9.2 mph - N/A   Clear
8:55 PM 40.1 °F 35.3 °F 23.5 °F 52% 29.85 in 10.0 mi South 6.9 mph - N/A   Clear
9:15 PM 40.6 °F 36.0 °F 23.9 °F 51% 29.85 in 10.0 mi South 6.9 mph - N/A   Clear
9:35 PM 40.3 °F 35.5 °F 23.9 °F 52% 29.85 in 10.0 mi SSW 6.9 mph - N/A   Clear
9:55 PM 40.3 °F 36.3 °F 24.3 °F 53% 29.85 in 10.0 mi SSW 5.8 mph - N/A   Clear
10:15 PM 39.7 °F 35.6 °F 24.4 °F 54% 29.84 in 10.0 mi SSW 5.8 mph - N/A   Mostly Cloudy
10:35 PM 41.2 °F 37.3 °F 24.8 °F 52% 29.86 in 10.0 mi SW 5.8 mph - N/A   Scattered Clouds
10:55 PM 40.5 °F 38.4 °F 24.6 °F 53% 29.86 in 10.0 mi SW 3.5 mph - N/A   Clear
11:15 PM 40.5 °F 38.4 °F 24.6 °F 53% 29.85 in 10.0 mi SW 3.5 mph - N/A   Scattered Clouds
11:35 PM 38.8 °F 35.4 °F 24.3 °F 56% 29.86 in 10.0 mi West 4.6 mph - N/A   Scattered Clouds
11:55 PM 40.3 °F 38.2 °F 24.8 °F 54% 29.86 in 10.0 mi WSW 3.5 mph - N/A   Scattered Clouds